Regional Weather Roundup
Issued by NWS

Home | Current Version | Previous Version | Text Only | Print | Product List | Glossary Off
Versions: 1 2 3 4 5 6 7 8 9 10 11 12 13 14 15 16 17 18 19 20 21 22 23 24 25 26 27 28 29 30 31 32 33 34 35 36 37 38 39 40 41 42 43 44 45 46 47 48 49 50

195
ASUS45 KCYS 131110
RWRWY

WYOMING REGIONAL WEATHER ROUNDUP
NATIONAL WEATHER SERVICE CHEYENNE WY
400 AM MST SAT FEB 13 2016

NOTE:  "FAIR" INDICATES FEW OR NO CLOUDS BELOW 12,000 FEET
WITH NO SIGNIFICANT WEATHER AND/OR OBSTRUCTIONS TO VISIBILITY.

WYZ001-131200-
YELLOWSTONE NATIONAL PARK

CITY           SKY/WX    TMP DP  RH WIND       PRES   REMARKS
LK YELLOWSTONE   N/A     31  24  75 VRB3      30.14F
W YELLOWSTONE  NOT AVBL

$$
WYZ002>013-054>058-071-098>099-131200-
NORTHERN WYOMING

CITY           SKY/WX    TMP DP  RH WIND       PRES   REMARKS
JACKSON        CLOUDY    27  23  86 N6        30.16F WCI  20
CODY           FAIR      50  25  37 NE3       29.99F
GREYBULL       MOCLDY    30  27  88 CALM      30.01F
WORLAND        FAIR      26  25  96 E3        30.01F
SHERIDAN       FAIR      28  25  88 CALM      29.94F
BUFFALO        FAIR      39  25  57 N6        29.96F WCI  35
GILLETTE       FAIR      31  27  85 SE10G20   29.98F WCI  22
HULETT         FAIR      32  28  86 W3        30.01S
NEWCASTLE      CLOUDY    28  28 100 SE7       30.07F WCI  21

$$
WYZ014>020-022>026-101>103-131200-
CENTRAL WYOMING

CITY           SKY/WX    TMP DP  RH WIND       PRES   REMARKS
BIG PINEY      FAIR      20  17  88 NE6       30.19F WCI  12
PINEDALE         N/A     19  18  93 W3        30.19F
DUBOIS         FAIR      32  19  59 NW17G23   30.11F WCI  21
LANDER         FAIR      35  20  54 CALM      30.05F
RIVERTON       FAIR      29  23  78 SW3       30.06F
CASPER         FAIR      40  22  48 SW17      30.04F WCI  31
DOUGLAS        FOG       29  28  96 S5        30.06F VSB 1/2 WCI  24

$$
WYZ021-027>030-104>119-131200-
SOUTHERN WYOMING

CITY           SKY/WX    TMP DP  RH WIND       PRES   REMARKS
EVANSTON       FAIR      29  13  51 SW12      30.22F WCI  19
FORT BRIDGER   SUNNY     32  14  47 SW10      30.24F WCI  24
ROCK SPRINGS   FAIR      35  19  52 SW13      30.19F WCI  26
DIXON          FAIR      15  10  81 E3        30.25F
RAWLINS        FAIR      36  19  50 CALM      30.16F
SARATOGA       FAIR      34  21  60 S14G20    30.18F WCI  24
LARAMIE        FAIR      37  19  48 SW7       30.15F WCI  32
CHEYENNE       FAIR      32  25  75 SW5       30.09F WCI  27
TORRINGTON     FAIR      28  27  96 E8        30.08F WCI  20
PINE BLUFFS    FOG       28  28 100 S10       30.12F VSB 3/4 WCI  19

$$




USA.gov is the U.S. government's official web portal to all federal, state and local government web resources and services.